Change the Weather History Date:

Saturday, November 5, 2011

  Actual Average Record
Temperature  
Mean Temperature 47 °F 48 °F  
Max Temperature 60 °F 57 °F 76 °F (1975)
Min Temperature 33 °F 38 °F 19 °F (1991)
Degree Days  
Heating Degree Days 18 18  
Month to date heating degree days 73 84  
Since 1 July heating degree days 487 518  
Cooling Degree Days 0 0  
Month to date cooling degree days 0 0  
Year to date cooling degree days 1246 982  
Moisture  
Dew Point 30 °F    
Average Humidity 56    
Maximum Humidity 82    
Minimum Humidity 29    
Precipitation  
Precipitation 0.00 in 0.09 in 1.04 in (1948)
Month to date precipitation 0.26 0.46  
Year to date precipitation 35.92 31.56  
Sea Level Pressure  
Sea Level Pressure 30.23 in    
Wind  
Wind Speed 7 mph (SE)    
Max Wind Speed 12 mph    
Max Gust Speed 16 mph    
Visibility 10 miles    
Events      
T = Trace of Precipitation, MM = Missing Value Source: NWS Daily Summary

Daily Weather History Graph

Daily Weather History Graph

Search for Another Location

Airport or City:

Trip Planner

Search our weather history database for the weather conditions in past years. The results will help you decide how hot, cold, wet, or windy it might be!

Date:

Astronomy

Nov. 05, 2011 Rise Set
Actual Time 8:21 AM EDT 6:40 PM EDT
Civil Twilight 7:53 AM EDT 7:08 PM EDT
Nautical Twilight 7:20 AM EDT 7:41 PM EDT
Astronomical Twilight 6:49 AM EDT 8:12 PM EDT
Moon 3:58 PM EDT (11/5) 3:30 AM EDT (11/5)
Length of Visible Light 11h 15m
Length of Day
10h 18m
Waxing Gibbous, 78% of the Moon is Illuminated
Nov 5
Waxing Gibbous
Nov 10
Full
Nov 18
Last Quarter
Nov 25
New
Dec 2
First Quarter

Hourly Weather History & Observations

Time (EDT) Temp. Windchill Dew Point Humidity Pressure Visibility Wind Dir Wind Speed Gust Speed Precip Events Conditions
12:54 AM 37.0 °F 30.4 °F 28.9 °F 73% 30.30 in 10.0 mi ESE 9.2 mph - N/A   Clear
1:54 AM 39.0 °F - 28.0 °F 65% 30.30 in 10.0 mi North - - N/A   Clear
2:54 AM 37.0 °F - 28.0 °F 70% 30.29 in 10.0 mi North - - N/A   Clear
3:54 AM 35.1 °F - 28.0 °F 76% 30.29 in 10.0 mi North - - N/A   Clear
4:54 AM 35.1 °F - 28.0 °F 76% 30.28 in 10.0 mi North - - N/A   Clear
5:54 AM 35.1 °F - 28.0 °F 76% 30.28 in 10.0 mi North - - N/A   Clear
6:54 AM 33.1 °F - 27.0 °F 78% 30.29 in 10.0 mi North - - N/A   Clear
7:54 AM 34.0 °F 28.0 °F 27.0 °F 75% 30.30 in 10.0 mi ESE 6.9 mph - N/A   Clear
8:54 AM 34.0 °F 28.0 °F 28.0 °F 79% 30.29 in 10.0 mi ESE 6.9 mph - N/A   Clear
9:54 AM 39.0 °F 34.8 °F 30.0 °F 70% 30.30 in 10.0 mi SE 5.8 mph - N/A   Clear
10:54 AM 45.0 °F 40.1 °F 30.9 °F 58% 30.30 in 10.0 mi SSE 9.2 mph - N/A   Clear
11:54 AM 48.9 °F - 32.0 °F 52% 30.29 in 10.0 mi South 5.8 mph - N/A   Clear
12:54 PM 54.0 °F - 33.1 °F 45% 30.27 in 10.0 mi South 8.1 mph - N/A   Clear
2:54 PM 59.0 °F - 32.0 °F 36% 30.21 in 10.0 mi SSE 6.9 mph - N/A   Clear
3:54 PM 60.1 °F - 33.1 °F 36% 30.18 in 10.0 mi SSE 9.2 mph - N/A   Clear
4:54 PM 60.1 °F - 28.9 °F 31% 30.17 in 10.0 mi SSE 8.1 mph - N/A   Clear
5:54 PM 55.9 °F - 32.0 °F 40% 30.16 in 10.0 mi SE 6.9 mph - N/A   Clear
6:54 PM 52.0 °F - 32.0 °F 47% 30.15 in 10.0 mi SE 6.9 mph - N/A   Clear
7:54 PM 48.9 °F - 32.0 °F 52% 30.15 in 10.0 mi SE 5.8 mph - N/A   Clear
8:54 PM 46.9 °F - 30.9 °F 54% 30.14 in 10.0 mi SE 5.8 mph - N/A   Clear
9:54 PM 43.0 °F 39.5 °F 30.9 °F 62% 30.14 in 10.0 mi ESE 5.8 mph - N/A   Clear
10:54 PM 44.1 °F 41.5 °F 30.9 °F 60% 30.14 in 10.0 mi East 4.6 mph - N/A   Clear
11:54 PM 44.1 °F 41.5 °F 30.0 °F 58% 30.14 in 10.0 mi SE 4.6 mph - N/A   Clear